Regional Weather Roundup
Issued by NWS

Home | Current Version | Previous Version | Text Only | Print | Product List | Glossary Off
Versions: 1 2 3 4 5 6 7 8 9 10 11 12 13 14 15 16 17 18 19 20 21 22 23 24 25 26 27 28 29 30 31 32 33 34 35 36 37 38 39 40 41 42 43 44 45 46 47 48 49 50

490
ASUS43 KTOP 192308
RWRKS

WEATHER ROUNDUP FOR KANSAS
NATIONAL WEATHER SERVICE GOODLAND KS
500 PM CST SUN NOV 19 2017

NOTE:  "FAIR" INDICATES FEW OR NO CLOUDS BELOW 12,000 FEET WITH NO
SIGNIFICANT WEATHER AND/OR OBSTRUCTIONS TO VISIBILITY.

KSZ001>006-013>018-027>032-041>047-200000-
NORTHWEST KANSAS

CITY           SKY/WX    TMP DP  RH WIND       PRES   REMARKS
GOODLAND       CLEAR     56  13  18 SW8       29.98F
HAYS           CLOUDY    55  23  28 SW8       30.02F
HILL CITY      PTCLDY    54  25  32 SW7       30.00F
RUSSELL        CLOUDY    54  22  28 S10       30.01F
$$

KSZ061>065-074>080-084>089-200000-
SOUTHWEST KANSAS

CITY           SKY/WX    TMP DP  RH WIND       PRES   REMARKS
DODGE CITY     CLOUDY    61  19  19 SW12      30.04F
ELKHART        CLEAR     56  22  26 SW12      30.04F
GARDEN CITY    CLEAR     58  22  24 SW3       30.02F
GREAT BEND     CLOUDY    58  21  24 S12       30.04F
LIBERAL        CLEAR     58  19  22 SW14      30.06S
PRATT          CLEAR     58  16  19 SW14      30.07F
$$

KSZ066>073-081>083-090>101-200000-
SOUTHEAST KANSAS

CITY           SKY/WX    TMP DP  RH WIND       PRES   REMARKS
CHANUTE        CLEAR     50  31  48 S8        30.16F
COFFEYVILLE    CLEAR     51  30  44 S7        30.18F
HUTCHINSON     CLOUDY    55  22  27 S12       30.08F
MEDICINE LODGE   N/A     59  19  21 S10       30.09F
NEWTON         CLOUDY    51  23  33 S10       30.11S
PARSONS        CLEAR     52  29  41 S6        30.18F
WICHITA INTL   CLOUDY    55  23  28 S10       30.11F
WICHITA JABRA  CLOUDY    54  22  28 S12       30.11F
WICHITA MCCONL CLOUDY    55  21  26 SW14      30.11F
WINFIELD       CLEAR     55  23  28 S9        30.14F
$$

KSZ007>012-019>026-033>040-048>060-102>105-200000-
NORTHEAST KANSAS

CITY           SKY/WX    TMP DP  RH WIND       PRES   REMARKS
CONCORDIA      CLEAR     52  22  30 SW9       30.03S
EMPORIA        CLEAR     49  23  36 SW9       30.11F
LAWRENCE       CLEAR     51  29  42 S7        30.11F
MANHATTAN      CLEAR     52  24  33 SW9       30.06F
MARYSVILLE     CLEAR     50  27  40 S6        30.04F
OLATHE IND     CLEAR     47  30  51 S7        30.12F
OLATHE EXE     CLEAR     48  29  47 S7        30.12F
SALINA         CLEAR     55  22  27 S13       30.05F
TOPEKA BILLARD CLEAR     55  23  28 S7        30.09F
TOPEKA FORBES  CLEAR     51  24  34 S7        30.09F
$$




USA.gov is the U.S. government's official web portal to all federal, state and local government web resources and services.